Location: Wanzleben
(52.0609°N, 11.4408°E)
Time: 16:04:26
(UTC+00:00)

Cosmos 2263 Rocket - Pass Details

Date: 18 September 2020
Orbit: 822 x 849 km, 71.0° (Epoch: 21 October)

Event Time Altitude Azimuth Distance (km) Brightness Sun altitude
Rises 17:49:14 0° 190° (S) 3,346 5.3 -5.1°
Reaches altitude 10° 17:51:42 10° 185° (S) 2,419 4.6 -5.5°
Maximum altitude 17:57:01 50° 112° (ESE) 1,049 2.4 -6.3°
Drops below altitude 10° 18:02:24 10° 38° (NE) 2,448 4.4 -7.1°
Sets 18:04:55 0° 34° (NE) 3,390 5.1 -7.5°
